User: anonymous   Login
Location: Albany
(35.0000°S, 118.0000°E)
Time: 05:41:07
(UTC-04:00)
Language:

Cosmos 1346 Rocket - Orbit

View from above orbital plane
View from above orbital plane
View from above satellite
View from above satellite

Ground track
Ground track

The orbit data is extracted from the following two-line orbital elements,

1 13121U 82027B   17296.16666653  .00000402  00000-0  24059-4 0  9991
2 13121  81.1632 332.1682 0029409 102.7482 257.7032 15.08386485936275
Epoch (UTC): 23 October 2017 03:59:59
Eccentricity: 0.0029409
inclination: 81.1632°
perigee height: 521 km
apogee height: 561 km
right ascension of ascending node: 332.1682°
argument of perigee: 102.7482°
revolutions per day: 15.08386485
mean anomaly at epoch: 257.7032°
orbit number at epoch: 93627

The dashed part of the orbit path shows where the satellite is in the earth's shadow,  

DLR